sat.trackr.live / text

‹ back to catalog

STARLINK-33669

NORAD 63283 · 2025-053U

PAYLOAD ACTIVE UNKNOWN

§ Identity

Operator
Country
US
Launch date
2025-03-15
Launch site
AFETR
Launch vehicle
Mass (kg)
RCS (m²)

Purposes: comms

External: N2YO · Heavens-Above · Gunter

§ Orbital elements

Epoch: 2026-05-24T18:28:49.059264Z

Period
94.27 min
Inclination
42.9965°
Eccentricity
0.0002102
Mean motion
15.27594390 rev/d
Perigee alt
481.6 km
Apogee alt
484.4 km
Semi-major
6,861.1 km
B*
4.7384e-4
RAAN
171.7064°
Arg perigee
275.6628°
Mean anomaly
84.3984°
Rev number
6,783

§ Raw data

STARLINK-336691 63283U 25053U   26144.77001226  .00012806  00000+0  47384-3 0  99942 63283  42.9965 171.7064 0002102 275.6628  84.3984 15.27594390 67831

JSON: /api/v1/satellites/63283 · /tle

For live sub-satellite position, see the globe view (requires WebGL).

§ Visibility from observer

Set your observer location to see the next 7 days of passes ≥ 10°. The values pass through the URL so the page stays shareable.

No JS? Fill the form by hand. The geolocation button needs JavaScript.